Hourly Data Report for October 30, 2014

All times are specified in Local Standard Time (LST). Add 1 hour to adjust for Daylight Saving Time where and when it is observed.

KAMLOOPS A
BRITISH COLUMBIA

50°42'09.000" N
120°26'55.000" W
345.30 m
1163781
71887
YKA

Download Data

Hourly Data (October 2014)
Hourly Data Report for October 30, 2014
Temp Definition
°C
Dew Point Temp Definition
°C
Rel Hum Definition
%
Wind Dir Definition
10's deg

Wind Spd Definition
km/h
Visibility Definition
km
Stn Press Definition
kPa
Hmdx Definition


Wind Chill Definition


Weather Definition


TIME
00:00 Legend Double Dagger 7.4 5.4 87 8 12 64.4 97.93     LegendNANA
01:00 Legend Double Dagger 6.8 5.1 89 9 19 64.4 97.92     Mainly Clear
02:00 Legend Double Dagger 6.5 4.8 89 8 19 64.4 97.92     LegendNANA
03:00 Legend Double Dagger 7.0 5.0 87 8 19 64.4 97.90     LegendNANA
04:00 Legend Double Dagger 6.7 4.9 88 10 17 64.4 97.85     Mainly Clear
05:00 Legend Double Dagger 6.6 4.9 89 7 15 64.4 97.80     LegendNANA
06:00 Legend Double Dagger 6.4 4.7 89 9 19 64.4 97.74     LegendNANA
07:00 Legend Double Dagger 6.1 4.6 90 9 16 64.4 97.71     Mostly Cloudy
08:00 Legend Double Dagger 7.8 5.6 86 10 13 64.4 97.63     LegendNANA
09:00 Legend Double Dagger 9.9 6.1 77 10 16 64.4 97.55     LegendNANA
10:00 Legend Double Dagger 10.7 5.9 72 7 13 64.4 97.44     Mostly Cloudy
11:00 Legend Double Dagger 12.1 5.5 64 10 18 64.4 97.32     LegendNANA
12:00 Legend Double Dagger 12.9 5.4 60 9 18 64.4 97.22     LegendNANA
13:00 Legend Double Dagger 14.3 4.9 53 11 27 64.4 97.09     Cloudy
14:00 Legend Double Dagger 15.2 5.8 53 9 32 64.4 96.95     LegendNANA
15:00 Legend Double Dagger 15.0 5.6 53 9 34 64.4 96.90     LegendNANA
16:00 Legend Double Dagger 14.0 5.9 58 8 31 64.4 96.84     Cloudy
17:00 Legend Double Dagger 12.9 6.3 64 5 28 64.4 96.79     LegendNANA
18:00 Legend Double Dagger 12.3 6.4 67 7 27 64.4 96.75     LegendNANA
19:00 Legend Double Dagger 11.9 6.4 69 7 26 64.4 96.68     Mostly Cloudy
20:00 Legend Double Dagger 12.0 6.7 70 7 30 64.4 96.62     LegendNANA
21:00 Legend Double Dagger 12.2 6.7 69 9 29 64.4 96.58     LegendNANA
22:00 Legend Double Dagger 12.3 6.8 69 9 26 64.4 96.54     Mostly Cloudy
23:00 Legend Double Dagger 11.6 6.8 72 9 25 64.4 96.51     LegendNANA

Notes on Data Quality.

Legend

  • E = Estimated
  • M = Missing
  • NA = Not Available
  • ‡ = Partner data that is not subject to review by the National Climate Archives
Date modified: